• In India
  • List of Countries
  • For 7 days
  • Water Temperature
  • Satellite Maps
  • Weather Map
  • Weather Widgets
  • user-avatar
    Login

    Hourly Weather Zaluchchya

    Today, 18 September, Tuesday

    Time Temperature Precipitation Wind Pressure Humidity
    00:00 +15°C° 0 mm 1 mps 750 mmHg 71%
    01:00 +15°C° 0 mm 1 mps 750 mmHg 73%
    02:00 +14°C° 0 mm 1 mps 750 mmHg 75%
    03:00 +14°C° 0 mm 1 mps 750 mmHg 76%
    04:00 +14°C° 0 mm 1 mps 750 mmHg 77%
    05:00 +14°C° 0 mm 1 mps 750 mmHg 78%
    06:00 +15°C° 0 mm 1 mps 750 mmHg 75%
    07:00 +16°C° 0 mm 1 mps 750 mmHg 72%
    08:00 +18°C° 0 mm 1 mps 750 mmHg 67%
    09:00 +20°C° 0 mm 1 mps 750 mmHg 63%
    10:00 +21°C° 0 mm 1 mps 750 mmHg 58%
    11:00 +23°C° 0 mm 2 mps 750 mmHg 53%
    12:00 +24°C° 0 mm 2 mps 750 mmHg 50%
    13:00 +25°C° 0 mm 1 mps 750 mmHg 47%
    14:00 +26°C° 0 mm 1 mps 750 mmHg 44%
    15:00 +25°C° 0 mm 1 mps 750 mmHg 46%
    16:00 +25°C° 0 mm 1 mps 749 mmHg 48%
    17:00 +25°C° 0 mm 1 mps 749 mmHg 51%
    18:00 +23°C° 0 mm 1 mps 749 mmHg 54%
    19:00 +21°C° 0 mm 1 mps 749 mmHg 57%
    20:00 +20°C° 0 mm 1 mps 749 mmHg 60%
    21:00 +19°C° 0 mm 1 mps 750 mmHg 61%
    22:00 +19°C° 0 mm 1 mps 750 mmHg 62%
    23:00 +18°C° 0 mm 1 mps 750 mmHg 64%

    Tomorrow, 19 September, Wednesday

    Time Temperature Precipitation Wind Pressure Humidity
    00:00 +18°C° 0 mm 1 mps 750 mmHg 65%
    01:00 +16°C° 0 mm 1 mps 750 mmHg 67%
    02:00 +16°C° 0 mm 1 mps 750 mmHg 68%
    03:00 +16°C° 0 mm 1 mps 750 mmHg 69%
    04:00 +15°C° 0 mm 1 mps 750 mmHg 71%
    05:00 +15°C° 0 mm 1 mps 750 mmHg 72%
    06:00 +16°C° 0 mm 1 mps 750 mmHg 70%
    07:00 +18°C° 0 mm 1 mps 750 mmHg 68%
    08:00 +19°C° 0 mm 1 mps 750 mmHg 66%
    09:00 +20°C° 0 mm 2 mps 750 mmHg 60%
    10:00 +23°C° 0 mm 2 mps 750 mmHg 55%
    11:00 +25°C° 0 mm 2 mps 750 mmHg 50%
    12:00 +26°C° 0 mm 2 mps 750 mmHg 47%
    13:00 +27°C° 0 mm 2 mps 750 mmHg 45%
    14:00 +28°C° 0 mm 2 mps 749 mmHg 42%
    15:00 +27°C° 0 mm 2 mps 749 mmHg 45%
    16:00 +27°C° 0 mm 1 mps 749 mmHg 47%
    17:00 +27°C° 0 mm 1 mps 749 mmHg 49%
    18:00 +25°C° 0 mm 1 mps 749 mmHg 52%
    19:00 +23°C° 0 mm 1 mps 749 mmHg 55%
    20:00 +21°C° 0 mm 1 mps 749 mmHg 58%
    21:00 +20°C° 0 mm 1 mps 749 mmHg 59%
    22:00 +20°C° 0 mm 1 mps 750 mmHg 60%
    23:00 +19°C° 0 mm 1 mps 750 mmHg 60%

    Day after tomorrow, 20 September, Thursday

    Time Temperature Precipitation Wind Pressure Humidity
    00:00 +19°C° 0 mm 1 mps 750 mmHg 61%
    01:00 +19°C° 0 mm 1 mps 749 mmHg 62%
    02:00 +18°C° 0 mm 1 mps 749 mmHg 62%
    03:00 +18°C° 0 mm 1 mps 749 mmHg 63%
    04:00 +16°C° 0 mm 1 mps 749 mmHg 64%
    05:00 +16°C° 0 mm 1 mps 749 mmHg 65%
    06:00 +18°C° 0 mm 1 mps 749 mmHg 63%
    07:00 +19°C° 0 mm 1 mps 749 mmHg 61%
    08:00 +20°C° 0 mm 1 mps 750 mmHg 59%
    09:00 +21°C° 0 mm 1 mps 750 mmHg 54%
    10:00 +23°C° 0 mm 1 mps 750 mmHg 49%
    11:00 +25°C° 0 mm 2 mps 750 mmHg 43%
    12:00 +26°C° 0 mm 2 mps 749 mmHg 41%
    13:00 +27°C° 0 mm 2 mps 749 mmHg 39%
    14:00 +28°C° 0 mm 2 mps 749 mmHg 36%
    15:00 +27°C° 0 mm 2 mps 748 mmHg 39%
    16:00 +27°C° 0 mm 2 mps 748 mmHg 41%
    17:00 +26°C° 0 mm 2 mps 748 mmHg 44%
    18:00 +25°C° 0 mm 2 mps 748 mmHg 46%
    19:00 +23°C° 0 mm 1 mps 748 mmHg 48%
    20:00 +21°C° 0 mm 1 mps 748 mmHg 50%
    21:00 +20°C° 0 mm 1 mps 748 mmHg 51%
    22:00 +20°C° 0 mm 1 mps 748 mmHg 52%
    23:00 +19°C° 0 mm 1 mps 748 mmHg 53%

    21 September, Friday

    Time Temperature Precipitation Wind Pressure Humidity
    00:00 +19°C° 0 mm 1 mps 748 mmHg 54%
    01:00 +18°C° 0 mm 1 mps 748 mmHg 55%
    02:00 +18°C° 0 mm 1 mps 748 mmHg 56%
    03:00 +18°C° 0 mm 1 mps 748 mmHg 57%
    04:00 +16°C° 0 mm 2 mps 747 mmHg 58%
    05:00 +16°C° 0 mm 2 mps 747 mmHg 59%
    06:00 +17°C° 0 mm 2 mps 747 mmHg 58%
    07:00 +18°C° 0 mm 2 mps 748 mmHg 57%
    08:00 +18°C° 0 mm 2 mps 748 mmHg 56%
    09:00 +21°C° 0 mm 3 mps 747 mmHg 51%
    10:00 +23°C° 0 mm 4 mps 747 mmHg 46%
    11:00 +26°C° 0 mm 4 mps 747 mmHg 41%
    12:00 +27°C° 0 mm 4 mps 747 mmHg 39%
    13:00 +28°C° 0 mm 4 mps 746 mmHg 37%
    14:00 +28°C° 0 mm 5 mps 746 mmHg 35%
    15:00 +28°C° 0 mm 4 mps 746 mmHg 37%
    16:00 +27°C° 0 mm 4 mps 745 mmHg 40%
    17:00 +26°C° 0 mm 3 mps 745 mmHg 43%
    18:00 +25°C° 0 mm 3 mps 745 mmHg 45%
    19:00 +22°C° 0 mm 3 mps 745 mmHg 46%
    20:00 +20°C° 0 mm 3 mps 745 mmHg 47%
    21:00 +20°C° 0 mm 3 mps 745 mmHg 48%
    22:00 +19°C° 0 mm 3 mps 744 mmHg 49%
    23:00 +19°C° 0 mm 3 mps 744 mmHg 50%

    22 September, Saturday

    Time Temperature Precipitation Wind Pressure Humidity
    00:00 +18°C° 0 mm 3 mps 744 mmHg 52%
    01:00 +18°C° 0 mm 3 mps 744 mmHg 54%
    02:00 +17°C° 0 mm 3 mps 744 mmHg 55%
    03:00 +17°C° 0 mm 2 mps 744 mmHg 57%
    04:00 +16°C° 0 mm 2 mps 743 mmHg 58%
    05:00 +16°C° 0 mm 2 mps 743 mmHg 59%
    06:00 +17°C° 0 mm 2 mps 743 mmHg 58%
    07:00 +18°C° 0 mm 2 mps 743 mmHg 57%
    08:00 +19°C° 0 mm 2 mps 743 mmHg 56%
    09:00 +21°C° 0 mm 2 mps 743 mmHg 51%
    10:00 +24°C° 0 mm 2 mps 743 mmHg 46%
    11:00 +26°C° 0 mm 3 mps 743 mmHg 41%
    12:00 +26°C° 0 mm 3 mps 743 mmHg 43%
    13:00 +26°C° 0 mm 4 mps 743 mmHg 46%
    14:00 +26°C° 0 mm 4 mps 742 mmHg 48%
    15:00 +23°C° 0 mm 5 mps 742 mmHg 54%
    16:00 +21°C° 0 mm 6 mps 743 mmHg 59%
    17:00 +18°C° 0 mm 7 mps 743 mmHg 65%
    18:00 +16°C° 0.9 mm 8 mps 743 mmHg 71%
    19:00 +12°C° 0.9 mm 8 mps 744 mmHg 77%
    20:00 +10°C° 0.9 mm 9 mps 745 mmHg 83%
    21:00 +9°C° 2.8 mm 8 mps 745 mmHg 84%
    22:00 +9°C° 2.8 mm 8 mps 746 mmHg 86%
    23:00 +8°C° 2.8 mm 7 mps 747 mmHg 87%

    23 September, Sunday

    Time Temperature Precipitation Wind Pressure Humidity
    00:00 +8°C° 0.9 mm 7 mps 747 mmHg 87%
    01:00 +9°C° 0.9 mm 7 mps 747 mmHg 86%
    02:00 +9°C° 0.9 mm 6 mps 747 mmHg 85%
    03:00 +8°C° 0 mm 6 mps 747 mmHg 86%
    04:00 +8°C° 0 mm 6 mps 747 mmHg 86%
    05:00 +8°C° 0 mm 6 mps 748 mmHg 86%
    06:00 +8°C° 0 mm 6 mps 748 mmHg 84%
    07:00 +9°C° 0 mm 6 mps 748 mmHg 81%
    08:00 +9°C° 0 mm 7 mps 748 mmHg 79%
    09:00 +10°C° 0 mm 7 mps 748 mmHg 72%
    10:00 +12°C° 0 mm 7 mps 748 mmHg 64%
    11:00 +14°C° 0 mm 7 mps 748 mmHg 57%
    12:00 +15°C° 0 mm 7 mps 747 mmHg 54%
    13:00 +16°C° 0 mm 7 mps 747 mmHg 52%
    14:00 +16°C° 0 mm 7 mps 747 mmHg 49%
    15:00 +16°C° 0 mm 6 mps 747 mmHg 52%
    16:00 +15°C° 0 mm 5 mps 747 mmHg 54%
    17:00 +15°C° 0 mm 5 mps 746 mmHg 57%
    18:00 +14°C° 0 mm 4 mps 746 mmHg 62%
    19:00 +12°C° 0 mm 3 mps 746 mmHg 67%
    20:00 +12°C° 0 mm 2 mps 746 mmHg 72%
    21:00 +10°C° 0 mm 2 mps 746 mmHg 73%
    22:00 +10°C° 0 mm 2 mps 746 mmHg 75%
    23:00 +9°C° 0 mm 2 mps 746 mmHg 76%
    Show more